Terug naar catalogus

NOAA 16 DEB

ActiefSSO
NORAD 41505·DEBRIS·🇺🇸 United States

Gelanceerd Sep 21, 2000 vanaf Vandenberg Space Force Base

Loading…

Volgende Passages (komende 24 uur)

TLE

VersSource: Space-Track

Epoch: Sep 13, 2026, 05:03 UTC

1 41505U 00055MD  26256.21077397  .00004559  00000-0  13379-2 0  9990
2 41505  98.8509  31.6652 0032980 197.1156 162.8924 14.44010081550534

Volg NOAA 16 DEB in realtime met AllMySat

Download on the App Store